APG477 RPVE-RPLL

Flight info

Callsign APG477
Flight time 0h 36m
Altitude 24000
Route MINOR8A MINOR B473 LAIYA LAIYA3R
Aircraft A320/M-SDE3FGHIRWY/LB1

Departure

Time 2026-05-08 20:26
Airport Godofredo P. Ramos Airport (RPVE)

Arrival

Time 2026-05-08 21:03
Airport Ninoy Aquino International Airport (RPLL)
Time Latitude Longitude Altitude Speed Heading
2026-05-08 19:52 11.92639 121.96344 14 ft 0 kts 150°
2026-05-08 20:11 11.92645 121.96340 14 ft 2 kts 150°
2026-05-08 20:12 11.92659 121.96334 14 ft 2 kts 177°
2026-05-08 20:12 11.92674 121.96336 14 ft 2 kts 204°
2026-05-08 20:12 11.92687 121.96345 14 ft 2 kts 232°
2026-05-08 20:12 11.92691 121.96352 14 ft 1 kts 247°
2026-05-08 20:13 11.92693 121.96355 14 ft 0 kts 243°
2026-05-08 20:19 11.92691 121.96352 14 ft 1 kts 243°
2026-05-08 20:19 11.92684 121.96337 14 ft 3 kts 243°
2026-05-08 20:20 11.92670 121.96310 14 ft 5 kts 243°
2026-05-08 20:20 11.92650 121.96269 14 ft 7 kts 243°
2026-05-08 20:20 11.92637 121.96243 14 ft 1 kts 243°
2026-05-08 20:20 11.92632 121.96231 14 ft 2 kts 249°
2026-05-08 20:21 11.92639 121.96211 14 ft 4 kts 317°
2026-05-08 20:21 11.92676 121.96187 14 ft 7 kts 333°
2026-05-08 20:21 11.92734 121.96157 14 ft 10 kts 333°
2026-05-08 20:21 11.92795 121.96115 14 ft 9 kts 290°
2026-05-08 20:22 11.92775 121.96043 14 ft 12 kts 243°
2026-05-08 20:22 11.92730 121.95954 14 ft 17 kts 243°
2026-05-08 20:22 11.92664 121.95819 14 ft 24 kts 244°
2026-05-08 20:22 11.92610 121.95710 14 ft 25 kts 242°
2026-05-08 20:23 11.92506 121.95505 14 ft 23 kts 243°
2026-05-08 20:23 11.92432 121.95360 14 ft 19 kts 242°
2026-05-08 20:23 11.92369 121.95237 14 ft 17 kts 243°
2026-05-08 20:23 11.92318 121.95133 14 ft 16 kts 243°
2026-05-08 20:24 11.92277 121.95073 14 ft 10 kts 217°
2026-05-08 20:24 11.92232 121.95028 14 ft 7 kts 251°
2026-05-08 20:24 11.92250 121.95001 14 ft 5 kts 354°
2026-05-08 20:24 11.92273 121.95027 14 ft 6 kts 78°
2026-05-08 20:25 11.92284 121.95066 14 ft 0 kts 66°
2026-05-08 20:25 11.92365 121.95229 14 ft 63 kts 62°
2026-05-08 20:26 11.92679 121.95859 14 ft 130 kts 63°
2026-05-08 20:26 11.93139 121.96772 337 ft 151 kts 63°
2026-05-08 20:26 11.93608 121.97724 932 ft 154 kts 63°
2026-05-08 20:26 11.94086 121.98691 1598 ft 154 kts 61°
2026-05-08 20:27 11.94579 121.99670 2066 ft 164 kts 61°
2026-05-08 20:27 11.95130 122.00760 2465 ft 180 kts 61°
2026-05-08 20:27 11.95723 122.01935 2905 ft 195 kts 59°
2026-05-08 20:27 11.96613 122.03039 3293 ft 212 kts 34°
2026-05-08 20:28 11.97939 122.03818 3726 ft 232 kts 25°
2026-05-08 20:28 11.99430 122.04551 4249 ft 249 kts 24°
2026-05-08 20:28 12.01044 122.05338 4819 ft 266 kts 24°
2026-05-08 20:28 12.02732 122.06174 5653 ft 272 kts 25°
2026-05-08 20:29 12.04413 122.07017 6574 ft 274 kts 25°
2026-05-08 20:29 12.06132 122.07878 7455 ft 279 kts 22°
2026-05-08 20:29 12.08010 122.08276 8225 ft 282 kts 352°
2026-05-08 20:29 12.09829 122.07673 9085 ft 283 kts 332°
2026-05-08 20:30 12.11580 122.06769 9996 ft 286 kts 332°
2026-05-08 20:30 12.13373 122.05856 10670 ft 297 kts 332°
2026-05-08 20:30 12.15267 122.04923 11232 ft 312 kts 333°
2026-05-08 20:30 12.17250 122.03974 12012 ft 318 kts 333°
2026-05-08 20:31 12.19266 122.03026 12832 ft 322 kts 333°
2026-05-08 20:31 12.21290 122.02083 13635 ft 327 kts 334°
2026-05-08 20:31 12.23378 122.01117 14434 ft 331 kts 334°
2026-05-08 20:31 12.25480 122.00148 15218 ft 335 kts 334°
2026-05-08 20:32 12.27607 121.99170 15985 ft 339 kts 334°
2026-05-08 20:32 12.29735 121.98193 16730 ft 343 kts 334°
2026-05-08 20:32 12.31918 121.97191 17472 ft 347 kts 334°
2026-05-08 20:32 12.34110 121.96185 18190 ft 351 kts 334°
2026-05-08 20:33 12.36360 121.95154 18900 ft 355 kts 334°
2026-05-08 20:33 12.38609 121.94122 19584 ft 358 kts 334°
2026-05-08 20:33 12.40862 121.93089 20246 ft 362 kts 334°
2026-05-08 20:33 12.43168 121.92030 20901 ft 366 kts 334°
2026-05-08 20:34 12.45481 121.90969 21537 ft 369 kts 334°
2026-05-08 20:34 12.47843 121.89885 22164 ft 373 kts 334°
2026-05-08 20:34 12.52572 121.87714 23403 ft 378 kts 334°
2026-05-08 20:35 12.54990 121.86603 23770 ft 381 kts 334°
2026-05-08 20:35 12.57387 121.85503 23859 ft 381 kts 334°
2026-05-08 20:35 12.59666 121.84456 23867 ft 381 kts 334°
2026-05-08 20:35 12.62134 121.83322 23872 ft 381 kts 334°
2026-05-08 20:36 12.64543 121.82215 23874 ft 381 kts 334°
2026-05-08 20:36 12.66924 121.81120 23875 ft 381 kts 334°
2026-05-08 20:36 12.69266 121.80043 23876 ft 381 kts 334°
2026-05-08 20:36 12.71658 121.78943 23876 ft 381 kts 334°
2026-05-08 20:37 12.74085 121.77827 23876 ft 381 kts 334°
2026-05-08 20:37 12.76491 121.76719 23876 ft 381 kts 334°
2026-05-08 20:37 12.78890 121.75614 23876 ft 381 kts 334°
2026-05-08 20:37 12.81303 121.74503 23876 ft 381 kts 334°
2026-05-08 20:38 12.83713 121.73394 23876 ft 381 kts 334°
2026-05-08 20:38 12.86120 121.72285 23876 ft 381 kts 334°
2026-05-08 20:38 12.88509 121.71184 23876 ft 381 kts 334°
2026-05-08 20:38 12.90944 121.70061 23876 ft 381 kts 334°
2026-05-08 20:39 12.93354 121.68951 23876 ft 381 kts 334°
2026-05-08 20:39 12.95752 121.67846 23876 ft 381 kts 334°
2026-05-08 20:39 12.98148 121.66741 23876 ft 381 kts 334°
2026-05-08 20:39 13.00569 121.65625 23876 ft 381 kts 334°
2026-05-08 20:40 13.02970 121.64517 23876 ft 382 kts 334°
2026-05-08 20:40 13.05407 121.63393 23876 ft 382 kts 334°
2026-05-08 20:40 13.07800 121.62289 23875 ft 382 kts 334°
2026-05-08 20:40 13.10214 121.61175 23875 ft 382 kts 334°
2026-05-08 20:41 13.12652 121.60054 23875 ft 383 kts 334°
2026-05-08 20:41 13.15088 121.58935 23876 ft 383 kts 334°
2026-05-08 20:41 13.17527 121.57813 23876 ft 383 kts 334°
2026-05-08 20:41 13.19932 121.56704 23876 ft 383 kts 334°
2026-05-08 20:42 13.22367 121.55580 23876 ft 383 kts 334°
2026-05-08 20:42 13.24772 121.54469 23876 ft 383 kts 334°
2026-05-08 20:42 13.27202 121.53346 23689 ft 383 kts 334°
2026-05-08 20:42 13.29655 121.52210 22957 ft 390 kts 334°
2026-05-08 20:43 13.32100 121.51080 22447 ft 388 kts 334°
2026-05-08 20:43 13.34536 121.49953 22015 ft 384 kts 334°
2026-05-08 20:43 13.36964 121.48830 21603 ft 380 kts 334°
2026-05-08 20:43 13.39350 121.47724 21203 ft 375 kts 334°
2026-05-08 20:44 13.41689 121.46640 20813 ft 371 kts 334°
2026-05-08 20:44 13.44014 121.45562 20425 ft 367 kts 333°
2026-05-08 20:44 13.46332 121.44487 20039 ft 363 kts 333°
2026-05-08 20:44 13.48601 121.43434 19661 ft 359 kts 333°
2026-05-08 20:45 13.50875 121.42380 19280 ft 355 kts 333°
2026-05-08 20:45 13.52364 121.41688 19031 ft 353 kts 333°
2026-05-08 20:45 13.55304 121.40310 18512 ft 348 kts 332°
2026-05-08 20:45 13.57409 121.39154 18114 ft 342 kts 327°
2026-05-08 20:46 13.59406 121.37828 17712 ft 338 kts 323°
2026-05-08 20:46 13.61301 121.36435 17314 ft 335 kts 322°
2026-05-08 20:46 13.63179 121.35033 16913 ft 333 kts 322°
2026-05-08 20:46 13.65036 121.33637 16513 ft 330 kts 321°
2026-05-08 20:47 13.66855 121.32265 16118 ft 327 kts 321°
2026-05-08 20:47 13.68685 121.30889 15717 ft 324 kts 322°
2026-05-08 20:47 13.70501 121.29528 15316 ft 322 kts 322°
2026-05-08 20:47 13.72288 121.28191 14919 ft 319 kts 322°
2026-05-08 20:48 13.74080 121.26852 14517 ft 317 kts 322°
2026-05-08 20:48 13.75831 121.25545 14122 ft 314 kts 322°
2026-05-08 20:48 13.77606 121.24219 13718 ft 312 kts 322°
2026-05-08 20:48 13.79344 121.22922 13319 ft 309 kts 322°
2026-05-08 20:49 13.81076 121.21629 12918 ft 307 kts 322°
2026-05-08 20:49 13.82785 121.20353 12520 ft 304 kts 322°
2026-05-08 20:49 13.84401 121.19147 12140 ft 302 kts 322°
2026-05-08 20:49 13.86107 121.17871 11736 ft 300 kts 323°
2026-05-08 20:50 13.87791 121.16612 11334 ft 298 kts 323°
2026-05-08 20:50 13.89453 121.15369 10934 ft 296 kts 323°
2026-05-08 20:50 13.91117 121.14127 10533 ft 295 kts 323°
2026-05-08 20:50 13.92774 121.12889 10132 ft 294 kts 324°
2026-05-08 20:51 13.94419 121.11659 9787 ft 291 kts 324°
2026-05-08 20:51 13.95977 121.10497 9693 ft 289 kts 324°
2026-05-08 20:51 13.97566 121.09309 9484 ft 281 kts 324°
2026-05-08 20:51 13.99140 121.08131 9377 ft 278 kts 324°
2026-05-08 20:52 14.00707 121.06960 9241 ft 279 kts 324°
2026-05-08 20:52 14.02269 121.05792 9081 ft 278 kts 324°
2026-05-08 20:52 14.03841 121.04617 8907 ft 278 kts 324°
2026-05-08 20:52 14.05391 121.03461 8675 ft 278 kts 324°
2026-05-08 20:53 14.06949 121.02292 8383 ft 276 kts 325°
2026-05-08 20:53 14.08499 121.01131 8068 ft 275 kts 325°
2026-05-08 20:53 14.10036 120.99980 7743 ft 273 kts 325°
2026-05-08 20:53 14.11564 120.98846 7432 ft 271 kts 325°
2026-05-08 20:54 14.13096 120.97707 7115 ft 270 kts 325°
2026-05-08 20:54 14.14606 120.96582 6798 ft 268 kts 325°
2026-05-08 20:54 14.16103 120.95462 6668 ft 261 kts 325°
2026-05-08 20:54 14.17588 120.94418 6612 ft 253 kts 330°
2026-05-08 20:55 14.19097 120.93502 6313 ft 253 kts 332°
2026-05-08 20:55 14.20611 120.92610 6025 ft 251 kts 332°
2026-05-08 20:55 14.22117 120.91726 5745 ft 249 kts 332°
2026-05-08 20:55 14.23611 120.90847 5477 ft 246 kts 332°
2026-05-08 20:56 14.25073 120.89984 5257 ft 241 kts 332°
2026-05-08 20:56 14.26501 120.89138 5140 ft 230 kts 332°
2026-05-08 20:56 14.27742 120.88403 5094 ft 226 kts 332°
2026-05-08 20:56 14.29126 120.87596 4816 ft 229 kts 333°
2026-05-08 20:57 14.30503 120.86803 4565 ft 227 kts 333°
2026-05-08 20:57 14.31878 120.86009 4314 ft 225 kts 333°
2026-05-08 20:57 14.33249 120.85216 4066 ft 226 kts 333°
2026-05-08 20:57 14.34619 120.84424 3824 ft 227 kts 333°
2026-05-08 20:58 14.35980 120.83637 3583 ft 225 kts 333°
2026-05-08 20:58 14.37335 120.82854 3340 ft 221 kts 334°
2026-05-08 20:58 14.38784 120.82442 3051 ft 216 kts
2026-05-08 20:58 14.40147 120.83007 3004 ft 216 kts 42°
2026-05-08 20:59 14.41088 120.84207 2864 ft 218 kts 58°
2026-05-08 20:59 14.41821 120.85559 2791 ft 213 kts 62°
2026-05-08 20:59 14.42513 120.86903 2742 ft 213 kts 61°
2026-05-08 20:59 14.43232 120.88245 2630 ft 214 kts 60°
2026-05-08 21:00 14.43979 120.89591 2363 ft 214 kts 60°
2026-05-08 21:00 14.44715 120.90906 2088 ft 212 kts 61°
2026-05-08 21:00 14.45437 120.92196 1892 ft 203 kts 60°
2026-05-08 21:00 14.46123 120.93425 1592 ft 194 kts 61°
2026-05-08 21:01 14.46776 120.94599 1337 ft 178 kts 60°
2026-05-08 21:01 14.47370 120.95666 1073 ft 165 kts 60°
2026-05-08 21:01 14.47910 120.96635 859 ft 148 kts 62°
2026-05-08 21:01 14.48394 120.97508 662 ft 136 kts 61°
2026-05-08 21:02 14.48863 120.98351 492 ft 134 kts 62°
2026-05-08 21:02 14.49331 120.99182 329 ft 134 kts 62°
2026-05-08 21:02 14.49791 121.00020 160 ft 135 kts 63°
2026-05-08 21:02 14.50244 121.00850 84 ft 123 kts 62°
2026-05-08 21:03 14.50590 121.01467 84 ft 75 kts 60°
2026-05-08 21:03 14.50767 121.01785 84 ft 30 kts 60°
2026-05-08 21:03 14.50848 121.01929 84 ft 21 kts 60°
2026-05-08 21:03 14.50898 121.02003 84 ft 9 kts 36°
2026-05-08 21:04 14.50954 121.02003 84 ft 6 kts 324°
2026-05-08 21:04 14.50990 121.01967 84 ft 6 kts 315°
2026-05-08 21:04 14.51003 121.01921 84 ft 7 kts 248°
2026-05-08 21:04 14.50976 121.01870 84 ft 8 kts 240°
2026-05-08 21:05 14.50943 121.01813 84 ft 9 kts 239°
2026-05-08 21:05 14.50908 121.01748 84 ft 10 kts 241°
2026-05-08 21:05 14.50884 121.01688 84 ft 8 kts 279°
2026-05-08 21:05 14.50921 121.01636 84 ft 9 kts 315°
2026-05-08 21:06 14.50972 121.01585 84 ft 10 kts 315°
2026-05-08 21:06 14.51026 121.01530 84 ft 11 kts 315°
2026-05-08 21:06 14.51072 121.01482 84 ft 7 kts 314°
2026-05-08 21:06 14.51090 121.01456 84 ft 3 kts 277°
2026-05-08 21:07 14.51080 121.01435 84 ft 3 kts 224°
2026-05-08 21:07 14.51063 121.01419 84 ft 3 kts 229°
2026-05-08 21:07 14.51053 121.01406 84 ft 1 kts 231°
2026-05-08 21:07 14.51051 121.01404 84 ft 0 kts 231°